Location: Browne Barr
(41.2080°N, 111.9480°W)
Time: 06:23:23
(UTC+00:00)

X-37B - Pass Details

Date: 01 August 2021
Orbit: 381 x 393 km, 45.0° (Epoch: 29 August)

Event Time Altitude Azimuth Distance (km) Brightness Sun altitude
Exits shadow 11:13:06 22° 220° (SW) 897 1.8 -12.2°
Maximum altitude 11:14:51 50° 153° (SSE) 490 1.0 -11.9°
Drops below altitude 10° 11:17:55 10° 76° (ENE) 1,398 4.6 -11.5°
Sets 11:20:01 0° 71° (ENE) 2,254 6.1 -11.1°
